SCP
0 0 0 -0 0 0 -0 -0 -0 -0 -0 -0 0 0 0 0 0 0 0 0 0 0 0 0 0 0 0 0 0 0 0 0 0 0 -0 0 0 0 0 0 0 0 -0
-0 0 0 -0 -0 -0 -0 -0 -0 -0 0 0 -0 0 0 0 0 0 0 0 0 0 0 0 0 0 0 0 0 0 0 0 0 0 0 0 0 0 0 0 0 0 0
-0 -0 0 -0 -0 -0 -0 -0 -0 0 0 0 -0 -0 -0 0 0 0 0 0 0 0 0 0 0 0 0 0 0 0 0 0 0 0 0 0 0 0 0 0 0 0 0
0 -0 -0 -0 -0 -0 -0 -0 0 0 0 0 0 0 0 0 0 0 0 0 0 0 0 0 0 0 0 0 0 0 0 -0 0 0 0 0 0 0 0 0 0 0 0
0 -0 -0 -0 -0 -0 0 0 0 0 0 0 0 0 0 0 0 0 0 0 0 0 0 0 0 0 0 0 0 0 0 0 0 0 0 0 0 0 0 0 0 0 0
-0 -0 -0 -0 -0 0 0 0 0 0 0 0 0 0 0 0 0 0 0 0 0 0 0 0 0 0 0 0 0 0 0 0 0 0 0 0 0 -0 0 0 0 0 0
-0 -0 -0 -0 -0 0 0 0 0 0 0 0 0 0 0 0 0 0 0 0 0 0 0 0 0 0 0 0 0 0 0 0 0 0 0 0 0 -0 0 0 0 0 0
-0 0 0 -0 -0 -0 -0 0 0 0 0 0 0 0 0 0 0 0 0 0 0 0 0 0 0 0 0 0 0 0 0 0 0 0 0 0 0 0 0 0 0 0 0
0 0 0 0 0 0 0 0 0 0 0 0 0 0 0 0 0 0 0 0 0 0 0 0 0 0 0 0 0 0 0 0 0 0 0 0 0 0 -0 0 0 0 0
0 0 0 0 0 0 0 0 0 0 0 0 0 0 0 0 0 0 0 0 0 0 0 0 0 0 0 0 0 0 0 0 0 0 0 0 0 0 0 -0 0 0 0
0 0 0 0 0 0 0 0 0 0 0 0 0 0 0 0 0 0 0 0 0 0 0 0 0 0 0 0 0 0 0 0 0 0 0 0 0 0 0 -0 0 0 0
0 0 0 0 0 0 0 0 0 0 0 0 0 0 0 0 0 0 0 0 0 0 0 0 0 0 0 0 0 0 0 0 0 0 0 0 0 0 0 0 0 0 0
0 0 0 0 0 0 0 0 0 0 0 0 0 0 0 0 0 0 0 0 0 0 0 0 0 0 0 0 0 0 0 0 0 0 0 0 0 0 0 0 0 0 0
0 0 0 0 0 0 0 0 0 0 0 0 0 0 0 0 0 0 0 0 0 0 0 0 0 0 0 0 0 0 0 0 0 0 0 0 0 0 0 0 0 0 0
0 0 0 0 0 0 0 0 0 0 0 0 0 0 0 0 0 0 0 0 0 0 0 0 0 0 0 0 0 0 0 0 0 0 0 0 0 0 0 0 0 0 0
0 0 0 0 0 0 0 0 0 0 0 0 0 0 0 0 0 0 0 0 0 0 0 0 0 0 0 0 0 0 0 0 0 0 0 0 0 0 0 0 0 0 0
0 0 0 0 0 0 0 0 0 0 0 0 0 0 0 0 0 0 0 0 0 0 0 0 0 0 0 0 0 0 0 0 0 0 0 0 0 0 0 0 0 0 0
0 0 0 0 0 0 0 0 0 0 0 0 0 0 0 0 0 0 0 0 0 0 0 0 0 0 0 0 0 0 0 0 0 0 0 0 0 0 0 0 0 0 0
0 0 0 0 0 0 0 0 0 0 0 0 0 0 0 0 0 0 0 0 0 0 0 0 0 0 0 0 0 0 0 0 0 0 0 0 0 0 0 0 0 0 0
0 0 0 0 0 0 0 0 0 0 0 0 0 0 0 0 0 0 0 0 0 0 0 0 0 0 0 0 0 0 0 0 0 0 0 0 0 0 0 0 0 0 0
0 0 0 0 0 0 0 0 0 0 0 0 0 0 0 0 0 0 0 0 0 0 0 0 0 0 0 0 0 0 0 0 0 0 0 0 0 0 0 0 0 0 0
0 0 0 0 0 0 0 0 0 0 0 0 0 0 0 0 0 0 0 0 0 0 0 0 0 0 0 0 0 -0 0 0 0 0 0 0 0 0 0 0 0 0 0
0 0 0 0 0 0 0 0 0 0 0 0 0 0 0 0 0 0 0 0 0 0 0 0 0 0 0 0 0 -0 -0 0 0 0 0 0 0 0 0 0 0 0 0
0 0 0 0 0 0 0 0 0 0 0 0 0 0 0 0 0 0 0 0 0 0 0 0 0 0 0 0 0 0 0 0 0 0 0 0 0 0 0 0 0 0 0
0 0 0 0 0 0 0 0 0 0 0 0 0 0 0 0 0 0 0 0 0 0 0 0 0 0 0 0 0 0 0 0 0 0 0 0 0 0 0 0 0 0 0
0 0 0 0 0 0 0 0 0 0 0 0 0 0 0 0 0 0 0 0 0 0 0 0 0 0 0 0 0 0 0 0 0 0 0 0 0 0 0 0 0 0 0
Wind_Speed_500mb
19 17 15 12 13 14 15 14 15 15 15 16 16 13 11 9 10 10 10 14 21 23 22 17 15 9 2 4 3 7 9 10 12 14 15 8 10 14 13 12 13 19 24
20 18 16 11 13 14 17 16 15 15 14 15 16 18 16 12 11 11 10 12 18 22 23 20 18 14 11 9 7 6 5 8 9 8 6 3 7 12 13 12 10 14 15
21 15 14 11 10 10 12 16 15 14 13 13 13 14 12 11 9 9 9 10 14 19 21 21 19 17 14 12 8 3 1 4 5 5 3 2 2 8 9 11 12 8 12
19 14 11 9 7 8 10 12 14 16 16 14 12 11 10 11 10 10 10 10 10 13 17 19 19 18 16 14 11 4 3 4 2 3 2 2 2 4 6 5 8 8 8
19 11 7 4 5 6 8 10 12 13 12 12 12 12 11 11 11 12 12 12 13 12 15 18 18 19 17 15 14 8 7 8 6 4 1 3 2 5 5 8 8 11 10
17 12 5 5 5 5 5 5 6 7 8 8 10 11 13 13 13 13 12 11 13 13 16 18 18 18 18 16 15 13 11 14 14 12 7 9 9 1 5 17 23 19 16
17 13 7 9 7 5 2 2 2 4 6 8 9 12 14 15 15 15 15 14 14 14 17 19 19 18 18 17 15 14 13 18 20 20 16 14 12 9 13 18 16 18 18
17 13 8 11 8 5 3 3 6 9 11 13 17 18 21 22 21 21 21 20 19 20 21 23 23 22 21 19 18 18 17 18 23 23 24 22 19 18 16 20 21 19 16
19 15 12 8 5 5 8 8 11 14 17 18 21 24 27 28 28 28 26 26 24 23 26 27 26 25 24 23 20 20 21 22 23 26 31 31 26 24 20 26 23 26 25
18 16 13 13 12 13 14 17 18 21 24 26 28 30 32 33 33 31 32 31 26 27 27 29 31 31 30 29 27 25 25 27 28 28 30 34 34 31 29 27 33 29 28
22 20 19 18 18 19 20 22 24 26 29 31 33 35 35 35 35 36 36 36 38 35 31 32 36 37 36 36 32 32 31 31 33 32 33 34 39 42 39 34 38 37 34
21 19 18 20 19 21 23 26 28 31 33 35 37 38 39 40 41 42 42 42 42 42 41 42 43 42 41 39 37 38 39 38 37 38 38 37 39 44 47 45 41 45 43
19 17 17 19 22 24 26 29 31 33 36 38 40 41 42 43 45 46 46 46 46 47 47 48 48 48 47 47 44 45 40 39 39 41 40 37 38 45 47 48 48 48 49
16 15 16 20 23 26 29 31 33 34 36 38 40 42 43 44 45 47 48 49 49 49 49 49 49 50 50 50 52 54 52 47 42 44 43 43 44 43 47 48 50 51 53
15 16 20 24 27 29 32 34 35 36 37 38 39 42 44 44 46 47 48 49 50 50 50 50 51 51 51 52 54 56 57 55 53 52 53 49 46 49 50 54 51 53 54
17 19 22 27 31 32 34 35 36 36 37 39 40 42 44 45 45 45 45 46 46 48 49 51 52 52 53 54 55 56 57 59 58 58 58 59 55 52 51 58 63 62 59
19 22 23 27 30 32 34 36 37 38 40 40 41 42 44 45 45 47 47 46 46 46 47 46 48 51 54 56 58 59 59 59 60 60 60 62 65 65 63 56 57 68 68
23 22 22 26 30 32 34 35 37 38 40 42 44 46 47 48 48 48 49 46 46 46 46 46 47 48 50 54 58 57 60 62 62 60 59 60 62 65 70 72 65 62 62
25 24 24 28 31 31 33 35 37 39 41 43 47 50 51 52 51 50 48 44 41 38 37 37 35 38 38 38 41 43 45 47 50 51 51 51 52 55 60 66 68 67 68
30 28 28 29 31 32 34 35 37 39 42 45 49 52 52 48 46 44 41 36 31 27 28 30 30 28 32 37 39 38 37 34 26 29 35 39 40 38 36 47 56 65 67
35 31 28 28 32 33 33 36 38 40 43 46 50 47 43 40 35 29 21 14 15 17 19 22 23 26 27 35 40 41 24 26 12 10 22 24 21 25 27 29 31 40 58
31 29 25 28 32 32 32 36 40 44 47 50 45 39 34 27 21 16 12 8 9 11 15 18 24 31 30 33 38 32 21 14 6 36 22 32 27 31 34 35 31 36 36
27 23 25 29 31 29 31 36 39 42 44 43 36 30 26 21 17 14 12 9 11 13 16 21 24 30 34 29 29 21 13 10 50 32 41 40 30 22 21 24 23 28 36
17 20 25 28 27 29 33 37 40 42 45 39 36 29 20 17 15 13 12 12 13 16 18 22 24 26 27 27 25 23 18 19 11 26 49 45 37 30 24 22 25 25 33
14 19 24 27 26 31 34 37 39 40 40 35 33 30 16 15 15 16 18 17 17 18 19 23 20 21 22 21 25 26 22 18 20 30 37 55 49 34 21 22 25 30 33
14 20 25 28 29 33 36 38 39 39 36 32 29 29 20 15 13 16 18 20 21 19 19 20 18 18 20 18 19 21 23 25 26 25 37 44 44 42 27 27 19 23 24
Wind_Direction_500mb
149 134 111 88 73 62 61 68 81 89 90 85 74 73 76 74 78 72 42 37 29 28 32 35 38 41 346 353 357 4 36 101 117 115 107 83 43 26 31 50 44 72 88
142 130 120 92 73 68 65 69 76 79 79 73 65 62 58 52 45 23 17 27 24 22 24 26 26 25 15 354 347 350 46 101 131 147 148 96 36 26 34 50 62 58 81
144 126 127 113 81 73 64 63 66 68 63 59 55 50 45 20 17 10 345 359 10 14 16 18 19 18 12 4 357 358 14 118 114 109 101 227 8 14 19 33 66 44 50
152 131 124 114 97 73 57 52 53 55 54 48 42 42 32 19 10 1 350 343 340 357 7 10 11 12 10 2 357 335 234 222 291 324 252 56 70 339 340 5 23 29 24
148 150 139 126 106 65 48 46 46 41 45 43 39 33 24 15 10 4 359 338 332 327 351 357 359 360 1 356 350 328 267 266 287 317 314 291 341 49 327 265 316 332 330
158 148 143 128 110 84 56 40 32 29 18 8 1 359 359 358 1 -0 357 315 322 315 331 340 346 346 346 347 340 327 288 274 284 299 282 303 288 301 309 294 281 292 300
163 156 155 152 150 130 110 74 24 355 344 343 339 338 337 334 336 338 337 331 320 313 312 319 324 327 327 327 325 315 296 273 274 278 272 296 299 274 283 309 299 286 289
156 157 158 168 181 215 258 278 304 307 308 313 315 315 322 323 321 320 319 320 313 308 311 312 313 313 314 313 313 310 301 288 278 268 265 277 281 275 267 286 299 301 283
154 169 195 206 226 266 298 305 305 307 307 307 309 309 310 312 312 310 309 307 305 305 302 302 305 304 303 303 301 299 298 291 282 276 267 272 274 269 273 261 271 294 292
180 191 211 230 257 277 284 295 298 301 304 305 303 303 303 304 303 300 298 293 295 292 289 294 295 293 293 294 295 296 293 287 286 280 275 268 268 268 268 269 263 278 284
186 199 214 234 245 262 280 289 290 292 294 292 291 291 293 294 293 292 291 289 290 285 279 276 282 285 285 282 283 290 291 288 283 279 277 273 269 266 266 262 259 259 272
196 208 226 245 259 271 278 283 286 287 288 288 287 287 288 289 288 287 287 287 287 287 285 283 280 276 279 280 279 279 283 284 284 283 274 272 273 269 265 264 261 258 260
207 224 245 260 271 279 284 287 288 288 288 289 289 290 290 289 288 289 288 287 287 287 286 284 283 283 279 277 275 274 278 280 280 274 279 273 272 268 266 265 259 259 260
227 245 263 274 283 288 291 292 293 293 293 293 294 295 294 293 292 291 291 290 289 286 285 284 283 281 280 279 278 277 277 276 278 274 269 271 266 267 260 268 262 257 261
249 269 282 291 297 299 299 300 301 302 302 303 302 300 298 297 296 295 293 292 291 290 289 286 284 283 281 279 277 276 276 276 274 274 270 270 269 263 257 257 260 254 258
266 281 291 301 305 305 304 305 305 305 305 304 303 302 302 302 301 299 297 295 294 291 289 289 289 287 285 283 280 278 277 275 274 272 271 269 268 270 265 260 256 253 250
270 285 298 311 313 311 309 308 308 307 307 307 306 305 304 302 301 300 297 295 293 292 292 292 290 289 288 287 285 283 280 278 276 275 274 273 269 265 267 268 265 259 254
272 282 300 315 320 315 310 308 307 307 308 309 308 307 306 304 302 299 297 295 294 294 295 295 294 293 293 292 289 287 284 281 279 277 275 274 274 272 268 267 269 268 265
271 279 297 314 318 314 310 308 309 311 312 311 310 310 308 305 302 298 297 297 296 297 300 303 307 310 309 306 307 307 303 294 285 283 283 280 278 277 276 272 269 268 264
270 276 291 307 314 313 310 310 311 313 314 313 312 311 309 307 306 305 301 292 293 298 304 308 311 314 321 319 319 320 318 312 302 290 288 287 286 286 293 286 278 269 266
265 268 283 302 310 311 310 311 310 313 315 316 317 317 315 314 314 320 325 316 305 310 313 321 326 327 337 337 335 335 349 341 275 312 314 308 306 283 303 309 304 294 274
261 262 285 302 308 310 311 315 317 319 321 322 322 322 322 323 325 333 347 345 325 324 326 327 335 339 344 352 351 355 346 12 115 328 347 328 311 304 299 304 306 307 301
258 271 287 304 309 309 314 317 318 319 320 319 317 314 311 315 321 321 323 324 318 326 336 339 338 340 346 360 0 7 345 334 335 344 0 350 333 329 322 328 322 320 314
267 272 296 305 308 312 316 317 318 321 322 319 318 317 300 306 313 312 310 309 312 321 328 327 331 343 344 351 360 1 348 333 334 329 355 351 349 336 329 331 327 330 334
260 284 299 302 305 308 312 314 317 319 319 316 316 320 299 294 294 291 295 301 301 307 316 318 334 332 334 341 345 351 356 358 6 339 331 342 352 4 351 340 320 319 322
284 299 300 301 304 305 306 310 313 316 316 313 315 318 309 304 290 287 289 289 294 303 306 322 319 319 325 327 338 345 345 347 344 337 323 331 338 350 4 358 330 329 324
Wind_Speed_850mb
19 17 15 12 13 14 15 14 15 15 15 16 16 13 11 9 10 10 10 14 21 23 22 17 15 9 2 4 3 7 9 10 12 14 15 8 10 14 13 12 13 19 24
20 18 16 11 13 14 17 16 15 15 14 15 16 18 16 12 11 11 10 12 18 22 23 20 18 14 11 9 7 6 5 8 9 8 6 3 7 12 13 12 10 14 15
21 15 14 11 10 10 12 16 15 14 13 13 13 14 12 11 9 9 9 10 14 19 21 21 19 17 14 12 8 3 1 4 5 5 3 2 2 8 9 11 12 8 12
19 14 11 9 7 8 10 12 14 16 16 14 12 11 10 11 10 10 10 10 10 13 17 19 19 18 16 14 11 4 3 4 2 3 2 2 2 4 6 5 8 8 8
19 11 7 4 5 6 8 10 12 13 12 12 12 12 11 11 11 12 12 12 13 12 15 18 18 19 17 15 14 8 7 8 6 4 1 3 2 5 5 8 8 11 10
17 12 5 5 5 5 5 5 6 7 8 8 10 11 13 13 13 13 12 11 13 13 16 18 18 18 18 16 15 13 11 14 14 12 7 9 9 1 5 17 23 19 16
17 13 7 9 7 5 2 2 2 4 6 8 9 12 14 15 15 15 15 14 14 14 17 19 19 18 18 17 15 14 13 18 20 20 16 14 12 9 13 18 16 18 18
17 13 8 11 8 5 3 3 6 9 11 13 17 18 21 22 21 21 21 20 19 20 21 23 23 22 21 19 18 18 17 18 23 23 24 22 19 18 16 20 21 19 16
19 15 12 8 5 5 8 8 11 14 17 18 21 24 27 28 28 28 26 26 24 23 26 27 26 25 24 23 20 20 21 22 23 26 31 31 26 24 20 26 23 26 25
18 16 13 13 12 13 14 17 18 21 24 26 28 30 32 33 33 31 32 31 26 27 27 29 31 31 30 29 27 25 25 27 28 28 30 34 34 31 29 27 33 29 28
22 20 19 18 18 19 20 22 24 26 29 31 33 35 35 35 35 36 36 36 38 35 31 32 36 37 36 36 32 32 31 31 33 32 33 34 39 42 39 34 38 37 34
21 19 18 20 19 21 23 26 28 31 33 35 37 38 39 40 41 42 42 42 42 42 41 42 43 42 41 39 37 38 39 38 37 38 38 37 39 44 47 45 41 45 43
19 17 17 19 22 24 26 29 31 33 36 38 40 41 42 43 45 46 46 46 46 47 47 48 48 48 47 47 44 45 40 39 39 41 40 37 38 45 47 48 48 48 49
16 15 16 20 23 26 29 31 33 34 36 38 40 42 43 44 45 47 48 49 49 49 49 49 49 50 50 50 52 54 52 47 42 44 43 43 44 43 47 48 50 51 53
15 16 20 24 27 29 32 34 35 36 37 38 39 42 44 44 46 47 48 49 50 50 50 50 51 51 51 52 54 56 57 55 53 52 53 49 46 49 50 54 51 53 54
17 19 22 27 31 32 34 35 36 36 37 39 40 42 44 45 45 45 45 46 46 48 49 51 52 52 53 54 55 56 57 59 58 58 58 59 55 52 51 58 63 62 59
19 22 23 27 30 32 34 36 37 38 40 40 41 42 44 45 45 47 47 46 46 46 47 46 48 51 54 56 58 59 59 59 60 60 60 62 65 65 63 56 57 68 68
23 22 22 26 30 32 34 35 37 38 40 42 44 46 47 48 48 48 49 46 46 46 46 46 47 48 50 54 58 57 60 62 62 60 59 60 62 65 70 72 65 62 62
25 24 24 28 31 31 33 35 37 39 41 43 47 50 51 52 51 50 48 44 41 38 37 37 35 38 38 38 41 43 45 47 50 51 51 51 52 55 60 66 68 67 68
30 28 28 29 31 32 34 35 37 39 42 45 49 52 52 48 46 44 41 36 31 27 28 30 30 28 32 37 39 38 37 34 26 29 35 39 40 38 36 47 56 65 67
35 31 28 28 32 33 33 36 38 40 43 46 50 47 43 40 35 29 21 14 15 17 19 22 23 26 27 35 40 41 24 26 12 10 22 24 21 25 27 29 31 40 58
31 29 25 28 32 32 32 36 40 44 47 50 45 39 34 27 21 16 12 8 9 11 15 18 24 31 30 33 38 32 21 14 6 36 22 32 27 31 34 35 31 36 36
27 23 25 29 31 29 31 36 39 42 44 43 36 30 26 21 17 14 12 9 11 13 16 21 24 30 34 29 29 21 13 10 50 32 41 40 30 22 21 24 23 28 36
17 20 25 28 27 29 33 37 40 42 45 39 36 29 20 17 15 13 12 12 13 16 18 22 24 26 27 27 25 23 18 19 11 26 49 45 37 30 24 22 25 25 33
14 19 24 27 26 31 34 37 39 40 40 35 33 30 16 15 15 16 18 17 17 18 19 23 20 21 22 21 25 26 22 18 20 30 37 55 49 34 21 22 25 30 33
14 20 25 28 29 33 36 38 39 39 36 32 29 29 20 15 13 16 18 20 21 19 19 20 18 18 20 18 19 21 23 25 26 25 37 44 44 42 27 27 19 23 24
Wind_Direction_850mb
149 134 111 88 73 62 61 68 81 89 90 85 74 73 76 74 78 72 42 37 29 28 32 35 38 41 346 353 357 4 36 101 117 115 107 83 43 26 31 50 44 72 88
142 130 120 92 73 68 65 69 76 79 79 73 65 62 58 52 45 23 17 27 24 22 24 26 26 25 15 354 347 350 46 101 131 147 148 96 36 26 34 50 62 58 81
144 126 127 113 81 73 64 63 66 68 63 59 55 50 45 20 17 10 345 359 10 14 16 18 19 18 12 4 357 358 14 118 114 109 101 227 8 14 19 33 66 44 50
152 131 124 114 97 73 57 52 53 55 54 48 42 42 32 19 10 1 350 343 340 357 7 10 11 12 10 2 357 335 234 222 291 324 252 56 70 339 340 5 23 29 24
148 150 139 126 106 65 48 46 46 41 45 43 39 33 24 15 10 4 359 338 332 327 351 357 359 360 1 356 350 328 267 266 287 317 314 291 341 49 327 265 316 332 330
158 148 143 128 110 84 56 40 32 29 18 8 1 359 359 358 1 -0 357 315 322 315 331 340 346 346 346 347 340 327 288 274 284 299 282 303 288 301 309 294 281 292 300
163 156 155 152 150 130 110 74 24 355 344 343 339 338 337 334 336 338 337 331 320 313 312 319 324 327 327 327 325 315 296 273 274 278 272 296 299 274 283 309 299 286 289
156 157 158 168 181 215 258 278 304 307 308 313 315 315 322 323 321 320 319 320 313 308 311 312 313 313 314 313 313 310 301 288 278 268 265 277 281 275 267 286 299 301 283
154 169 195 206 226 266 298 305 305 307 307 307 309 309 310 312 312 310 309 307 305 305 302 302 305 304 303 303 301 299 298 291 282 276 267 272 274 269 273 261 271 294 292
180 191 211 230 257 277 284 295 298 301 304 305 303 303 303 304 303 300 298 293 295 292 289 294 295 293 293 294 295 296 293 287 286 280 275 268 268 268 268 269 263 278 284
186 199 214 234 245 262 280 289 290 292 294 292 291 291 293 294 293 292 291 289 290 285 279 276 282 285 285 282 283 290 291 288 283 279 277 273 269 266 266 262 259 259 272
196 208 226 245 259 271 278 283 286 287 288 288 287 287 288 289 288 287 287 287 287 287 285 283 280 276 279 280 279 279 283 284 284 283 274 272 273 269 265 264 261 258 260
207 224 245 260 271 279 284 287 288 288 288 289 289 290 290 289 288 289 288 287 287 287 286 284 283 283 279 277 275 274 278 280 280 274 279 273 272 268 266 265 259 259 260
227 245 263 274 283 288 291 292 293 293 293 293 294 295 294 293 292 291 291 290 289 286 285 284 283 281 280 279 278 277 277 276 278 274 269 271 266 267 260 268 262 257 261
249 269 282 291 297 299 299 300 301 302 302 303 302 300 298 297 296 295 293 292 291 290 289 286 284 283 281 279 277 276 276 276 274 274 270 270 269 263 257 257 260 254 258
266 281 291 301 305 305 304 305 305 305 305 304 303 302 302 302 301 299 297 295 294 291 289 289 289 287 285 283 280 278 277 275 274 272 271 269 268 270 265 260 256 253 250
270 285 298 311 313 311 309 308 308 307 307 307 306 305 304 302 301 300 297 295 293 292 292 292 290 289 288 287 285 283 280 278 276 275 274 273 269 265 267 268 265 259 254
272 282 300 315 320 315 310 308 307 307 308 309 308 307 306 304 302 299 297 295 294 294 295 295 294 293 293 292 289 287 284 281 279 277 275 274 274 272 268 267 269 268 265
271 279 297 314 318 314 310 308 309 311 312 311 310 310 308 305 302 298 297 297 296 297 300 303 307 310 309 306 307 307 303 294 285 283 283 280 278 277 276 272 269 268 264
270 276 291 307 314 313 310 310 311 313 314 313 312 311 309 307 306 305 301 292 293 298 304 308 311 314 321 319 319 320 318 312 302 290 288 287 286 286 293 286 278 269 266
265 268 283 302 310 311 310 311 310 313 315 316 317 317 315 314 314 320 325 316 305 310 313 321 326 327 337 337 335 335 349 341 275 312 314 308 306 283 303 309 304 294 274
261 262 285 302 308 310 311 315 317 319 321 322 322 322 322 323 325 333 347 345 325 324 326 327 335 339 344 352 351 355 346 12 115 328 347 328 311 304 299 304 306 307 301
258 271 287 304 309 309 314 317 318 319 320 319 317 314 311 315 321 321 323 324 318 326 336 339 338 340 346 360 0 7 345 334 335 344 0 350 333 329 322 328 322 320 314
267 272 296 305 308 312 316 317 318 321 322 319 318 317 300 306 313 312 310 309 312 321 328 327 331 343 344 351 360 1 348 333 334 329 355 351 349 336 329 331 327 330 334
260 284 299 302 305 308 312 314 317 319 319 316 316 320 299 294 294 291 295 301 301 307 316 318 334 332 334 341 345 351 356 358 6 339 331 342 352 4 351 340 320 319 322
284 299 300 301 304 305 306 310 313 316 316 313 315 318 309 304 290 287 289 289 294 303 306 322 319 319 325 327 338 345 345 347 344 337 323 331 338 350 4 358 330 329 324